Nice, France

1:46 PM CEST on April 23, 2018 (GMT +0200)
Nice-Cote d'Azur

Weather History for LFMN - August, 2013

Change the Weather History Date:

Friday, August 30, 2013

  Actual Average Record
Temperature  
Mean Temperature 75 °F -  
Max Temperature 81 °F 74 °F 91 °F (2003)
Min Temperature 69 °F 61 °F 62 °F (1996)
Cooling Degree Days 10    
Growing Degree Days 25 (Base 50)    
Moisture  
Dew Point 61 °F    
Average Humidity 59    
Maximum Humidity 68    
Minimum Humidity 47    
Precipitation  
Precipitation 0.00 in 0.07 in - ()
Sea Level Pressure  
Sea Level Pressure 30.04 in    
Wind  
Wind Speed 7 mph ()    
Max Wind Speed 14 mph    
Max Gust Speed -    
Visibility 6.7 miles    
Events Rain    
Averages and records for this station are not official NWS values.
T = Trace of Precipitation, MM = Missing Value Source: Averaged Metar Reports

Daily Weather History Graph

Daily Weather History Graph

Search for Another Location

Airport or City:

Astronomy

Aug. 30, 2013 Rise Set
Actual Time 6:52 AM CEST 8:10 PM CEST
Civil Twilight 6:22 AM CEST 8:39 PM CEST
Nautical Twilight 5:47 AM CEST 9:15 PM CEST
Astronomical Twilight 5:09 AM CEST 9:53 PM CEST
Moon 1:12 AM CEST (8/30) 4:19 PM CEST (8/30)
Length of Visible Light 14h 16m
Length of Day
13h 17m
Waning Crescent, 31% of the Moon is Illuminated
Aug 30
Waning Crescent
Sep 5
New
Sep 12
First Quarter
Sep 19
Full
Sep 27
Last Quarter

Hourly Weather History & Observations

Time (CEST) Temp. Heat Index Dew Point Humidity Pressure Visibility Wind Dir Wind Speed Gust Speed Precip Events Conditions
12:00 AM 75.2 °F - 59.0 °F 57% 30.06 in - NNW 8.1 mph - N/A   Clear
12:30 AM 73.4 °F - 59.0 °F 61% 30.06 in - North 4.6 mph - N/A   Clear
1:00 AM 73.4 °F - 59.0 °F 61% 30.06 in - North 8.1 mph - N/A   Clear
1:30 AM 73.4 °F - 59.0 °F 61% 30.06 in - North 6.9 mph - N/A   Clear
2:00 AM 73 °F - 59 °F 52% 30.07 in 19 mi North 8.1 mph - -   Partly Cloudy
2:00 AM 73.4 °F - 59.0 °F 61% 30.06 in - North 6.9 mph - N/A   Clear
2:30 AM 73.4 °F - 59.0 °F 61% 30.06 in - NNW 9.2 mph - N/A   Clear
3:00 AM 73.4 °F - 59.0 °F 61% 30.04 in - NNW 10.4 mph - N/A   Clear
3:30 AM 73.4 °F - 59.0 °F 61% 30.04 in - NNW 8.1 mph - N/A   Clear
4:00 AM 71.6 °F - 59.0 °F 64% 30.04 in - NNW 9.2 mph - N/A   Clear
4:30 AM 71.6 °F - 59.0 °F 64% 30.04 in - NNW 8.1 mph - N/A   Clear
5:00 AM 71.6 °F - 59.0 °F 64% 30.04 in - NNW 9.2 mph - N/A   Clear
5:30 AM 71.6 °F - 59.0 °F 64% 30.04 in - NNW 6.9 mph - N/A   Clear
6:00 AM 69.8 °F - 59.0 °F 68% 30.04 in - NNW 6.9 mph - N/A   Clear
6:30 AM 69.8 °F - 59.0 °F 68% 30.01 in - North 6.9 mph - N/A   Clear
7:00 AM 69.8 °F - 59.0 °F 68% 30.01 in - NNW 9.2 mph - N/A   Clear
7:30 AM 69.8 °F - 59.0 °F 68% 30.01 in 6.2 mi North 9.2 mph - N/A   Partly Cloudy
8:00 AM 71 °F - 58 °F 55% 30.03 in 31 mi North 8.1 mph - -   Scattered Clouds
8:00 AM 71.6 °F - 59.0 °F 64% 30.01 in 6.2 mi North 8.1 mph - N/A   Partly Cloudy
8:30 AM 73.4 °F - 59.0 °F 61% 30.04 in - NNW 9.2 mph - N/A   Clear
9:00 AM 73.4 °F - 59.0 °F 61% 30.04 in - NNW 9.2 mph - N/A   Clear
9:30 AM 75.2 °F - 59.0 °F 57% 30.04 in - NNW 5.8 mph - N/A   Clear
10:00 AM 77.0 °F - 59.0 °F 54% 30.06 in 6.2 mi NW 4.6 mph - N/A   Partly Cloudy
10:30 AM 78.8 °F - 57.2 °F 47% 30.06 in 6.2 mi Variable 2.3 mph - N/A   Scattered Clouds
11:00 AM 78.8 °F - 59.0 °F 51% 30.06 in 6.2 mi SE 5.8 mph - N/A   Scattered Clouds
11:30 AM 80.6 °F 81.1 °F 59.0 °F 48% 30.06 in 6.2 mi SSE 3.5 mph - N/A   Scattered Clouds
12:00 PM 80.6 °F 81.1 °F 59.0 °F 48% 30.06 in 6.2 mi Variable 2.3 mph - N/A   Partly Cloudy
12:30 PM 80.6 °F 81.5 °F 60.8 °F 51% 30.06 in 6.2 mi SE 3.5 mph - N/A   Partly Cloudy
1:00 PM 80.6 °F 81.1 °F 59.0 °F 48% 30.04 in 6.2 mi East 5.8 mph - N/A   Partly Cloudy
1:30 PM 80.6 °F 81.8 °F 62.6 °F 54% 30.04 in 6.2 mi ESE 5.8 mph - N/A   Partly Cloudy
2:00 PM 80 °F - 63 °F 47% 30.06 in 31 mi SE 4.6 mph - -   Scattered Clouds
2:00 PM 80.6 °F 81.8 °F 62.6 °F 54% 30.04 in 6.2 mi SE 3.5 mph - N/A   Partly Cloudy
2:30 PM 80.6 °F 82.3 °F 64.4 °F 58% 30.04 in 6.2 mi ESE 9.2 mph - N/A   Partly Cloudy
2:54 PM 80.6 °F 82.3 °F 64.4 °F 58% 30.04 in 6.2 mi East 12.7 mph - N/A   Partly Cloudy
3:30 PM 80.6 °F 82.3 °F 64.4 °F 58% 30.04 in 6.2 mi East 13.8 mph - N/A   Scattered Clouds
3:52 PM 78.8 °F - 64.4 °F 61% 30.04 in 6.2 mi East 13.8 mph - N/A   Scattered Clouds
4:30 PM 80.6 °F 81.8 °F 62.6 °F 54% 30.04 in 6.2 mi East 10.4 mph - N/A   Partly Cloudy
5:00 PM 78.8 °F - 62.6 °F 57% 30.04 in 6.2 mi East 8.1 mph - N/A   Scattered Clouds
5:30 PM 78.8 °F - 64.4 °F 61% 30.04 in 6.2 mi ESE 6.9 mph - N/A   Scattered Clouds
6:00 PM 77.0 °F - 64.4 °F 65% 30.04 in 6.2 mi SE 4.6 mph - N/A   Mostly Cloudy
7:00 PM 77.0 °F - 62.6 °F 61% 30.04 in 6.2 mi East 3.5 mph - N/A   Mostly Cloudy
7:30 PM 77.0 °F - 64.4 °F 65% 30.04 in 6.2 mi East 2.3 mph - N/A Rain Light Rain
8:00 PM 76 °F - 63 °F 55% 30.04 in 25 mi Calm Calm - - Rain Light Rain
8:00 PM 77.0 °F - 62.6 °F 61% 30.04 in 6.2 mi Calm Calm - N/A   Mostly Cloudy
8:30 PM 75.2 °F - 62.6 °F 65% 30.04 in 6.2 mi NW 4.6 mph - N/A   Mostly Cloudy
9:00 PM 75.2 °F - 60.8 °F 61% 30.04 in 6.2 mi NW 6.9 mph - N/A   Mostly Cloudy
9:30 PM 75.2 °F - 60.8 °F 61% 30.04 in 6.2 mi NW 5.8 mph - N/A   Mostly Cloudy
10:00 PM 73.4 °F - 60.8 °F 65% 30.06 in - NW 8.1 mph - N/A   Clear
10:30 PM 73.4 °F - 60.8 °F 65% 30.06 in - NNW 9.2 mph - N/A   Clear
11:00 PM 73.4 °F - 60.8 °F 65% 30.06 in - NW 10.4 mph - N/A   Clear
11:30 PM 73.4 °F - 60.8 °F 65% 30.06 in - NW 11.5 mph - N/A   Clear